www.pogodaiklimat.ru

Погода и климат >> Архив погоды >> Россия >> Татарстан >> Вязовые


ПОГОДА в Вязовых

  • Прогноз погоды в Вязовых
  • Монитор погоды в Вязовых

АРХИВ ПОГОДЫ в Вязовых

Время (UTC), дата Ветер
(напр.,м/с)
 
Видим.   Явления Облачность Т
(С)
Тd
(С)
f
(%)
Тe
(С)
Тes
(С)
Комфортность P
(гПа)
Po
(гПа)
Тmin
(С)
Tmax
(С)
R
(мм)
R24
(мм)
S
(см)
00 13.08 С 7-10
{11}
10 км ясно +7.4 +4.4 81 +3 +3 1013.7 998.7
03 13.08 СЗ 7
{11}
20 км ясно +7.1 +4.1 81 +2 +3 1014.0 998.9 +6.6
06 13.08 С 9-15
{15}
20 км 3/3 1000 м
[Cu hum]
+12.1 +4.0 58 +9 +10 1013.6 998.8
09 13.08 С 7-11
{15}
20 км 3/0
[Ac trans]
+15.5 +4.4 48 +14 +17 1013.1 998.5
12 13.08 С 7-11
{13}
20 км 3/0
[Ci fib]
+16.9 +3.1 40 +16 +18 1013.5 999.0
15 13.08 С 5
{13}
20 км 5/0
[Ci fib]
+16.8 +4.0 43 +16 +16 1013.9 999.3 +17.4
18 13.08 С 4 10 км ясно +14.0 +5.1 55 +13 +13 1015.1 1000.4
21 13.08 С 3 10 км 3/0
[Ci fib]
+11.9 +5.8 66 +10 +10 1014.8 1000.0
00 14.08 СЗ 3 10 км 8/0
[Ac trans Ci fib]
+10.3 +7.4 82 +8 +8 1014.8 999.9
03 14.08 СЗ 3 20 км 10/0
[Ac trans Ci fib]
+10.3 +7.7 84 +8 +9 1015.4 1000.6 +9.2
06 14.08 С 1 20 км 10/0
[Ac trans Ci fib]
+14.1 +8.8 70 +15 +19 1015.0 1000.3
09 14.08 В 2 20 км 8/0
[Ac trans Ci fib]
+17.8 +9.3 57 +18 +27 1013.6 999.1
12 14.08 СВ 1 20 км 9/0
[Ac trans Ci fib]
+18.5 +7.3 48 +20 +25 1013.4 999.0
15 14.08 ЮВ 2 20 км 9/0
[Ac trans]
+18.2 +8.5 53 +19 +19 1013.6 999.1 +19.6
18 14.08 ЮВ 2 10 км 10/0
[Ac trans]
+17.2 +11.5 69 +18 +18 1014.2 999.7
21 14.08 ЮЗ 3 10 км 10/0
[Ac trans]
+16.7 +10.8 68 +16 +16 1014.5 1000.0
00 15.08 ЮЗ 2 10 км 9/0
[Ac trans]
+16.0 +10.5 70 +16 +16 1015.0 1000.4
03 15.08 ЮЗ 2 20 км 9/0
[Ac trans]
+15.5 +11.0 75 +15 +16 1015.7 1001.1 +14.3
06 15.08 Ю 2 20 км 8/0
[Ac trans]
+19.8 +10.6 55 +22 +26 комфорт 1015.7 1001.3
09 15.08 ЮЗ 4 20 км 3/0
[Ci fib]
+24.9 +12.9 47 +27 +34 жарко 1014.9 1000.8
12 15.08 Ю 4 20 км 5/0
[Ac trans Ci fib]
+26.9 +13.8 44 +29 +32 жарко 1013.5 999.5
15 15.08 Ю 5 20 км 3/0
[Ci fib]
+25.4 +13.6 48 +28 +28 жарко 1012.9 998.8 +27.3
18 15.08 Ю 6 10 км 3/0
[Ac trans]
+21.4 +13.8 62 +24 +24 комфорт 1013.3 999.1
21 15.08 Ю 4 10 км 6/0
[Ac trans]
+19.9 +14.2 70 +22 +22 комфорт 1013.5 999.2
00 16.08 Ю 5 10 км 6/0
[Ci fib]
+19.0 +14.1 73 +20 +20 1013.6 999.2
03 16.08 ЮЗ 4 10 км 9/0
[Ac trans Ci fib]
+19.3 +14.5 74 +21 +21 комфорт 1013.7 999.3 +18.4
06 16.08 Ю 3 20 км 10/0
[Ac trans Ci fib]
+23.1 +15.9 64 +28 +32 душно 1012.9 998.7
09 16.08 СЗ 5 10 км гроза, ливневой дождь 10/8 600 м
[Cb cap Ac As]
+20.9 +17.9 83 +25 +25 комфорт 1013.1 998.9
12 16.08 СВ 3
{18}
20 км {гроза, ливн. осадки} 10/5 600 м
[Cb cap Ac As]
+18.1 +15.9 87 +18 +19 1015.5 1001.1
15 16.08 ЮВ 2 10 км 10/6 600 м
[Cb cap Ac As]
+18.6 +16.6 88 +20 +20 1014.1 999.7 +26.5 29
18 16.08 В 1 10 км 10/5 600 м
[Cu med, cong Ac As]
+18.6 +16.3 86 +21 +21 комфорт 1015.0 1000.6
21 16.08 С 2 10 км 10/0
[Ac As]
+17.4 +16.1 92 +18 +18 1014.7 1000.2
00 17.08 СВ 4 10 км 9/3 600 м
[Cu med, cong Ac trans Ci fib]
+16.7 +15.7 94 +16 +16 1015.0 1000.5
03 17.08 В 4 4000 м дымка 10/10 600 м
[Sc diur, vesp]
+17.0 +15.9 93 +17 +17 1014.0 999.5 +16.5
06 17.08 С 1 10 км 10/10 600 м
[Sc]
+18.5 +16.8 90 +20 +20 1015.1 1000.6
09 17.08 СЗ 1 10 км {ливн. осадки} 10/6 600 м
[Cb cap Ac As]
+20.0 +17.1 83 +24 +25 комфорт 1015.4 1001.1
12 17.08 В 1 10 км {ливн. осадки} 10/0
[Ac und]
+20.6 +16.8 79 +25 +27 комфорт 1015.2 1000.9
15 17.08 В 1 10 км 10/5 600 м
[Cb cap Ac As]
+20.0 +17.0 83 +24 +24 комфорт 1016.1 1001.7 +21.4
18 17.08 СВ 2 10 км слаб. ливневой дождь 10/8 600 м
[Cb cap Ac As]
+19.2 +17.4 89 +22 +22 комфорт 1016.0 1001.6
21 17.08 В 2 10 км {ливн. осадки} 10/0
[Ac und]
+18.3 +17.1 93 +19 +19 1015.8 1001.3
00 18.08 В 3 10 км {ливн. осадки} 10/0
[Ac und]
+18.3 +17.2 93 +19 +19 1015.4 1001.0
03 18.08 В 4 4000 м дымка 10/0
[Ac und]
+18.5 +17.5 94 +19 +19 1014.5 1000.1 +18.2
06 18.08 В 3 10 км 9/0
[Ac trans]
+21.8 +17.6 77 +26 +29 душно 1014.7 1000.4
09 18.08 ЮВ 3 10 км 10/3
[Cu hum Ac trans Ci fib]
+26.8 +14.4 47 +29 +33 жарко 1014.1 1000.1
12 18.08 ЮВ 3 10 км 9/3 1000 м
[Cu hum Ac trans Ci fib]
+26.4 +14.7 49 +29 +31 жарко 1014.7 1000.6
15 18.08 ЮВ 2 20 км 10/4 1000 м
[Cu hum Ac trans Ci fib]
+23.8 +15.5 60 +27 +27 жарко 1015.2 1001.1 +27.2
18 18.08 Ю 5 10 км 8/0
[Ac trans]
+22.4 +12.0 52 +25 +25 комфорт 1016.3 1002.0
21 18.08 Ю 3 10 км 6/0
[Ci fib]
+20.2 +13.2 64 +23 +23 комфорт 1017.0 1002.6
00 19.08 ЮВ 2 10 км 8/0
[Ac trans Ci fib]
+18.9 +13.9 73 +20 +20 1017.5 1003.1
03 19.08 Ю 4 10 км слаб. ливневой дождь 10/8 300 м
[Cb cap Ac As]
+18.5 +13.4 72 +19 +19 1018.3 1003.8 +17.8
06 19.08 ЮВ 3 10 км {ливн. осадки} 10/5 600 м
[Cb cap Ac As]
+19.3 +14.8 75 +21 +22 комфорт 1018.1 1003.7
09 19.08 ЮВ 2 10 км в посл. час ливневой дождь 10/6 600 м
[Cb cap Ac As]
+20.9 +15.4 71 +25 +26 комфорт 1018.0 1003.6
12 19.08 Ю 2 20 км {ливн. осадки} 10/6 600 м
[Cb cap Ac As]
+22.9 +17.1 70 +28 +29 душно 1017.1 1002.9
15 19.08 В 2 10 км 10/8 600 м
[Cb cap Ac As]
+22.4 +16.8 71 +27 +27 душно 1017.1 1002.9 +23.6
18 19.08 СЗ 3 10 км 10/4 600 м
[Cu med, cong Ac As]
+21.4 +17.5 78 +25 +25 комфорт 1017.8 1003.5
21 19.08 З 2 10 км 8/0
[Ac trans]
+20.3 +16.1 77 +24 +24 комфорт 1017.8 1003.4

 

Местоположение метеостанции Вязовые (Татарстан, Россия): широта 55.82 долгота 48.52 высота над уровнем моря 123 м.

В архиве по умолчанию представлена погода в Вязовых за последнюю неделю. Архивные данные за месяц целиком и за предыдущие месяцы, начиная с января 2011 года, Вы можете получить, выбрав интересующий диапазон дат из раскрывающегося списка и нажав кнопку "Ввод!".


*Определитесь, кто Вы:
робот инопланетянин человек

Внимание! Время в таблицах - всемирное. Для получения местного времени необходимо прибавить поправку, которая равна 3 ч.

Смотрите также архив погоды в соседних городах и на ближайших метеорологических станциях:

Погода в Казани (Татарстан, Россия) (44 км)
Погода в Больших Кайбицах (Татарстан, Россия) (51 км)
Погода в Канаше (Чувашия, Россия) (74 км)
Погода в Морках (Марий-Эл, Россия) (75 км)
Погода в Лаишево (Татарстан, Россия) (77 км)
Погода в Чебоксарах (Чувашия, Россия) (80 км)
Погода в Камском Устье (Татарстан, Россия) (82 км)
Погода в Арске (Татарстан, Россия) (89 км)
Погода в Тетюшах (Татарстан, Россия) (98 км)
Погода в Йошкар-Оле (Марий-Эл, Россия) (101 км)

Пояснения к столбцам:

Ветер - указаны скорость ветра в м/с - средняя за 10 мин, порывы в срок и между сроками (в фигурных скобках) и направление, откуда дует ветер: С - северный, СВ - северо-восточный, В - восточный, ЮВ - юго-восточный, Ю - южный, ЮЗ - юго-западный, З - западный, СЗ - северо-западный.
Видимость - горизонтальная дальность видимости в метрах или километрах. При видимости от 1 до 10 км при отсутствии осадков обычно наблюдается дымка, при ухудшении видимости до 1 км и менее - туман. В сухую погоду видимость может ухудшаться дымом, пылью или мглою.
Явления - указаны атмосферные явления, наблюдавшиеся в срок или в последний час перед сроком; фигурными скобками обозначены явления, наблюдавшиеся между сроками (за 1-3 часа до срока); квадратными скобками обозначены град или гололедные отложения с указанием их диаметра в мм.
Облачность - указаны через наклонную черту общая и нижняя облачность в баллах и высота нижней границы облаков в метрах; квадратными скобками обозначены формы облаков: Ci - перистые, Cs - перисто-слоистые, Cc - перисто-кучевые, Ac - высококучевые, As - высокослоистые, Sc - слоисто-кучевые, Ns - слоисто-дождевые, Cu - кучевые, Cb - кучево-дождевые. Подробнее классификацию облаков см. в Атласе облаков (PDF).
T - Температура воздуха - температура, измеренная на высоте 2 м над землей.
Td - Температура точки росы - температура, при понижении до которой содержащийся в воздухе водяной пар достигнет насыщения.
f - Относительная влажность воздуха - влажноcть воздуха, измеренная на высоте 2 м над землей.
Te - Эффективная температура - температура, которую ощущает одетый по сезону человек в тени. Характеристика душности погоды. При расчете учитывается влияние влажности воздуха и скорости ветра на теплоощущения человека.
Tes - Эффективная температура на солнце - температура, которую ощущает человек, с поправкой на солнечный нагрев. Характеристика знойности погоды. Зависит от высоты солнца над горизонтом, облачности и скорости ветра. Ночью, в пасмурную погоду, а также при ветре 12 м/с и более поправка равна нулю.
P - Атмосферное давление - приведенное к уровню моря атмосферное давление.
Po - Атмосферное давление - измеренное на уровне метеостанции атмосферное давление.
Tmin - Минимальная температура - минимум температуры воздуха на высоте 2 м над землей.
Tmax - Максимальная температура - максимум температуры воздуха на высоте 2 м над землей.
R - Количество осадков - Количество выпавших осадков за период времени, мм. При наведении курсора мыши на число - период времени, за который выпало указанное количество осадков.
R24 - Количество осадков - Количество выпавших осадков за 24 часа, мм.
S - Снежный покров - Высота снежного покрова, см. При наведении курсора мыши на число - состояние снежного покрова и степень покрытия местности в баллах.